Location: Harwich
(41.7160°N, 69.9939°W)
Time: 13:27:23
(UTC+01:00)

A-11 Canister half - Pass Details

Date: 03 December 2023
Orbit: 1526 x 1682 km, 47.3° (Epoch: 01 March)

Event Time Altitude Azimuth Distance (km) Brightness Sun altitude
Rises 08:21:02 0° 297° (WNW) 4,876 - -49.2°
Reaches altitude 10° 08:24:26 10° 290° (WNW) 3,866 - -48.6°
Maximum altitude 08:33:19 40° 226° (SW) 2,188 - -47.0°
Exits shadow 08:41:29 12° 161° (SSE) 3,613 11.0 -45.5°
Drops below altitude 10° 08:41:56 10° 160° (SSE) 3,741 11.1 -45.4°
Sets 08:45:11 0° 153° (SSE) 4,704 11.7 -44.8°
